Location: ?????????
(41.2393°N, 22.9479°E)
Time: 23:46:37
(UTC+00:00)

SMAP - Pass Details

Date: 17 November 2025
Orbit: 681 x 683 km, 98.1° (Epoch: 09 December)

Event Time Altitude Azimuth Distance (km) Brightness Sun altitude
Rises 15:55:12 0° 167° (SSE) 3,031 6.5 -9.2°
Reaches altitude 10° 15:57:26 10° 168° (SSE) 2,120 5.7 -9.6°
Maximum altitude 16:02:05 84° 256° (WSW) 693 3.2 -10.5°
Drops below altitude 10° 16:06:46 10° 346° (NNW) 2,134 5.6 -11.3°
Sets 16:09:01 0° 347° (NNW) 3,054 6.4 -11.7°
